Weather in Roses

Spain     42°15′52″N   3°10′23″E
temp.,
°C
wind,
m/s
gust,
m/s
humid.,
%
clouds,
%
prec.,
mm/h
press.,
hPa
HPBL,
m
16 april, fri
fri1623:00+11nnw444741 0.0 1019183
02:00+11nne99574 0.0 1018772
05:00+11nne89543 0.0 1018763
08:00+10nne89560 0.0 1018800
11:00+11nne895223 0.0 10181435
14:00+11ne811507 0.0 10181172
17:00+11ene554559 0.0 1017670
20:00+13n5103961 0.0 1017984
17 april, sat
sat1723:00+12nnw11144497 0.0 10181803
02:00+11n1012515 0.0 10191282
05:00+10nnw1012514 0.0 1017992
08:00+9nnw12165798 0.0 10181725
11:00+11nnw13154977 0.0 10182028
14:00+12n111345100 0.2 10172241
17:00+13nnw131543100 0.0 10151799
20:00+13nnw101346100 0.0 10161197
18 april, sun
sun1823:00+11nw10155355 0.0 10181130
02:00+10nnw10155819 0.0 1018919
05:00+10nnw1116575 0.0 1017952
08:00+10nnw1117600 0.0 10181194
11:00+13nnw1213480 0.0 10191652
14:00+14n1113505 0.0 10181284
17:00+15n1114493 0.0 1017998
20:00+14nnw1015525 0.0 1018703
19 april, mon
mon1923:00+12w455727 0.0 1020173
02:00+11w47623 0.0 1019308
05:00+10w44655 0.0 1018141
08:00+10w33645 0.0 1018110
11:00+12s1155100 0.0 1017244
14:00+13ese446499 0.0 1016393
17:00+14se5573100 0.0 1014347
20:00+14sse5683100 0.0 1014210
20 april, tue
tue2023:00+13ssw3486100 0.0 1014133
02:00+13sw2285100 0.0 101488
05:00+13wnw1184100 0.0 101363
08:00+13n2279100 0.1 101376
11:00+14nne3471100 0.1 1013326
14:00+12n4475100 0.6 1013337
17:00+11n6687100 0.6 1012306
20:00+11n5692100 2.4 1012264